Location: Boiro
(42.6475°N, 8.8834°W)
Time: 14:30:14
(UTC+02:00)

Explorer 7 - Pass Details

Date: 03 July 2022
Orbit: 482 x 668 km, 50.3° (Epoch: 15 August)

Event Time Altitude Azimuth Distance (km) Brightness Sun altitude
Rises 01:23:54 0° 257° (WSW) 3,003 10.7 -22.1°
Reaches altitude 10° 01:26:19 10° 263° (W) 2,092 9.9 -22.2°
Maximum altitude 01:31:02 50° 339° (NNW) 847 8.1 -22.5°
Drops below altitude 10° 01:35:41 10° 55° (NE) 2,053 9.9 -22.7°
Sets 01:38:03 0° 61° (ENE) 2,942 10.7 -22.9°
